Weather History for KCXY - September, 2013

Change the Weather History Date:

Thursday, September 5, 2013

  Actual Average Record
Temperature  
Mean Temperature 70 °F -  
Max Temperature 82 °F 78 °F 93 °F (1954)
Min Temperature 60 °F 59 °F 47 °F (1974)
Cooling Degree Days 6    
Growing Degree Days 20 (Base 50)    
Moisture  
Dew Point 51 °F    
Average Humidity 55    
Maximum Humidity 80    
Minimum Humidity 27    
Precipitation  
Precipitation 0.00 in - - ()
Sea Level Pressure  
Sea Level Pressure 30.05 in    
Wind  
Wind Speed 7 mph (NW)    
Max Wind Speed 12 mph    
Max Gust Speed 18 mph    
Visibility 10 miles    
Events      
Averages and records for this station are not official NWS values.
T = Trace of Precipitation, MM = Missing Value Source: NWS Daily Summary

Daily Weather History Graph

Daily Weather History Graph

Search for Another Location

Airport or City:

Trip Planner

Search our weather history database for the weather conditions in past years. The results will help you decide how hot, cold, wet, or windy it might be!

Date:

Astronomy

Sep. 05, 2013 Rise Set
Actual Time 6:38 AM EDT 7:32 PM EDT
Civil Twilight 6:11 AM EDT 7:59 PM EDT
Nautical Twilight 5:38 AM EDT 8:32 PM EDT
Astronomical Twilight 5:04 AM EDT 9:06 PM EDT
Moon 6:48 AM EDT 7:22 PM EDT
Length of Visible Light 13h 48m
Length of Day
12h 53m
New Moon, 0% of the Moon is Illuminated
Sep 5
New Moon
Sep 12
First Quarter
Sep 19
Full
Sep 26
Last Quarter
Oct 4
New

Hourly Weather History & Observations

Time (EDT) Temp. Dew Point Humidity Pressure Visibility Wind Dir Wind Speed Gust Speed Precip Events Conditions
12:56 AM 64.9 °F 54.0 °F 68% 30.02 in 10.0 mi WSW 8.1 mph - N/A   Clear
1:56 AM 64.9 °F 54.0 °F 68% 30.02 in 10.0 mi West 9.2 mph - N/A   Clear
2:56 AM 64.0 °F 54.0 °F 70% 30.01 in 10.0 mi West 5.8 mph - N/A   Clear
3:56 AM 63.0 °F 54.0 °F 72% 30.00 in 10.0 mi West 4.6 mph - N/A   Clear
4:56 AM 63.0 °F 55.0 °F 75% 30.00 in 10.0 mi Calm Calm - N/A   Clear
5:56 AM 62.1 °F 55.0 °F 78% 30.01 in 10.0 mi NW 3.5 mph - N/A   Clear
6:56 AM 62.1 °F 55.9 °F 80% 30.02 in 10.0 mi WNW 3.5 mph - N/A   Clear
7:56 AM 64.9 °F 57.0 °F 75% 30.03 in 10.0 mi West 6.9 mph - N/A   Clear
8:56 AM 70.0 °F 57.9 °F 65% 30.04 in 10.0 mi WSW 8.1 mph - N/A   Clear
9:56 AM 73.0 °F 59.0 °F 61% 30.04 in 10.0 mi West 10.4 mph - N/A   Mostly Cloudy
10:56 AM 75.0 °F 57.9 °F 55% 30.04 in 10.0 mi West 11.5 mph - N/A   Mostly Cloudy
11:56 AM 75.0 °F 55.9 °F 51% 30.05 in 10.0 mi NNW 10.4 mph - N/A   Mostly Cloudy
12:56 PM 78.1 °F 55.0 °F 45% 30.04 in 10.0 mi WNW 9.2 mph - N/A   Mostly Cloudy
1:56 PM 79.0 °F 53.1 °F 40% 30.03 in 10.0 mi North 9.2 mph - N/A   Scattered Clouds
2:56 PM 81.0 °F 48.0 °F 31% 30.02 in 10.0 mi NW 6.9 mph 18.4 mph N/A   Partly Cloudy
3:56 PM 81.0 °F 46.0 °F 29% 30.02 in 10.0 mi NW 11.5 mph 17.3 mph N/A   Partly Cloudy
4:56 PM 80.1 °F 43.0 °F 27% 30.03 in 10.0 mi NNW 9.2 mph - N/A   Clear
5:56 PM 79.0 °F 42.1 °F 27% 30.04 in 10.0 mi North 6.9 mph - N/A   Clear
6:56 PM 75.9 °F 42.1 °F 30% 30.06 in 10.0 mi NNE 8.1 mph - N/A   Clear
7:56 PM 73.0 °F 43.0 °F 34% 30.08 in 10.0 mi North 3.5 mph - N/A   Clear
8:56 PM 64.9 °F 46.9 °F 52% 30.11 in 10.0 mi Calm Calm - N/A   Clear
9:56 PM 62.1 °F 50.0 °F 65% 30.13 in 10.0 mi Calm Calm - N/A   Scattered Clouds
10:56 PM 60.1 °F 50.0 °F 69% 30.16 in 10.0 mi Calm Calm - N/A   Partly Cloudy
11:56 PM 64.9 °F 46.9 °F 52% 30.18 in 10.0 mi NNE 9.2 mph - N/A   Clear